This demonstration page uses our WeatherBlox Daily Observations layout. Learn more.

Left ArrowRight Arrow

39.12711, -84.51439

Hourly Observations for May 20, 2018

Temp ( °F °C ) Dew Point ( °F °C ) Humidity (%) Winds ( mph kmh ) Pressure ( in mb ) Visibility ( mi km ) Precip ( " mm )
12:53 am 00:53 Clear with Mist and Fog 67 19.4 67 19.4 100 100 Calm 29.99 1016 5 8 0.00 0.00
1:11 am 01:11 Clear with Mist and Fog 66 18.9 66 18.9 100 100 Calm 29.97 1015 2 2 0.00 0.00
1:21 am 01:21 Clear with Fog 66 18.9 66 18.9 100 100 Calm 29.97 1015 1 1 0.00 0.00
1:49 am 01:49 Clear with Fog 64 18 64 18 100 100 SW 3 6 29.97 1015 0 0 0.00 0.00
1:53 am 01:53 Clear with Fog 63 17.2 63 17.2 100 100 Calm 29.99 1016 0 0 0.00 0.00
2:06 am 02:06 Mostly Cloudy with Fog 64 17.8 64 17.8 100 100 Calm 29.97 1015 5 8 0.00 0.00
2:51 am 02:51 Clear with Fog 64 18 64 18 100 100 SW 3 6 29.97 1015 0 0 0.00 0.00
2:53 am 02:53 Clear with Fog 65 18.3 65 18.3 100 100 SW 3 6 30.00 1016 0 0 0.00 0.00
3:09 am 03:09 Mostly Cloudy with Fog 64 17.8 64 17.8 100 100 Calm 29.97 1015 0 0 0.00 0.00
3:22 am 03:22 Mostly Cloudy with Fog 64 17.8 64 17.8 100 100 Calm 30.00 1016 0 0 0.00 0.00
3:46 am 03:46 Partly Cloudy with Fog 64 17.8 64 17.8 100 100 WSW 3 6 30.00 1016 1 1 0.00 0.00
3:53 am 03:53 Partly Cloudy with Fog 64 17.8 64 17.8 100 100 SW 3 6 30.01 1016 0 0 0.00 0.00
4:07 am 04:07 Mostly Cloudy with Fog 62 16.7 62 16.7 100 100 Calm 30.00 1016 0 0 0.00 0.00
4:30 am 04:30 Mostly Cloudy with Fog 63 17.2 63 17.2 100 100 Calm 30.00 1016 0 0 0.00 0.00
4:41 am 04:41 Mostly Cloudy with Fog 64 17.8 64 17.8 100 100 SW 3 6 30.00 1016 1 1 0.00 0.00
4:53 am 04:53 Mostly Cloudy with Fog 62 16.7 62 16.7 100 100 SW 6 9 30.02 1017 0 0 0.00 0.00
5:01 am 05:01 Partly Cloudy with Mist and Fog 63 17.2 63 17.2 100 100 WSW 5 7 30.00 1016 1 2 0.00 0.00
5:08 am 05:08 Mostly Clear with Mist and Fog 64 17.8 64 17.8 100 100 SW 5 7 30.00 1016 3 5 0.00 0.00
5:16 am 05:16 Mostly Clear with Mist and Fog 63 17.2 63 17.2 100 100 WSW 5 7 30.00 1016 2 3 0.00 0.00
5:27 am 05:27 Partly Cloudy with Mist and Fog 62 16.7 62 16.7 100 100 SSW 6 9 30.00 1016 1 1 0.00 0.00
5:37 am 05:37 Mostly Clear with Mist and Fog 63 17.2 63 17.2 100 100 SW 5 7 30.00 1016 1 2 0.00 0.00
5:51 am 05:51 Clear with Mist and Fog 63 17 63 17 100 100 SW 5 7 30.00 1016 3 5 0.00 0.00
5:53 am 05:53 Clear with Mist and Fog 63 17.2 63 17.2 100 100 SW 5 7 30.03 1017 3 5 0.00 0.00
5:58 am 05:58 Clear with Mist and Fog 63 17.2 63 17.2 100 100 Calm 30.00 1016 2 2 0.00 0.00
6:03 am 06:03 Mostly Cloudy with Fog 63 17.2 63 17.2 100 100 Calm 30.00 1016 1 1 0.00 0.00
6:11 am 06:11 Mostly Cloudy with Fog 62 16.7 62 16.7 100 100 Calm 30.00 1016 0 0 0.00 0.00
6:24 am 06:24 Mostly Cloudy with Fog 63 17.2 63 17.2 100 100 Calm 30.00 1016 1 1 0.00 0.00
6:32 am 06:32 Mostly Cloudy with Fog 64 17.8 64 17.8 100 100 Calm 30.00 1016 0 0 0.00 0.00
6:50 am 06:50 Partly Cloudy with Mist and Fog 63 17 63 17 100 100 SSW 3 6 30.03 1017 2 2 0.00 0.00
6:53 am 06:53 Partly Cloudy with Mist and Fog 63 17.2 63 17.2 100 100 Calm 30.05 1018 2 3 0.00 0.00
7:24 am 07:24 Mostly Cloudy with Mist and Fog 64 17.8 64 17.8 100 100 Calm 30.03 1017 1 1 0.00 0.00
7:53 am 07:53 Partly Cloudy with Mist and Fog 66 18.9 66 18.9 100 100 Calm 30.06 1018 1 2 0.00 0.00
8:13 am 08:13 Partly Cloudy with Mist and Fog 67 19.4 67 19.4 100 100 Calm 30.06 1018 2 3 0.00 0.00
8:18 am 08:18 Sunny with Mist and Fog 67 19.4 67 19.4 100 100 Calm 30.06 1018 4 6 0.00 0.00
8:53 am 08:53 Sunny 71 21.7 69 20.6 94 94 Calm 30.06 1018 7 11 0.00 0.00
9:53 am 09:53 Sunny 75 23.9 70 21.1 84 84 Calm 30.08 1019 8 13 0.00 0.00
10:53 am 10:53 Mostly Cloudy 80 26.7 70 21.1 71 71 Calm 30.08 1019 9 14 0.00 0.00
11:53 am 11:53 Partly Cloudy 81 27.2 69 20.6 67 67 NNW 3 6 30.09 1019 10 16 0.00 0.00
12:53 pm 12:53 Mostly Cloudy 83 28.3 68 20 61 61 VRB 5 7 30.10 1019 10 16 0.00 0.00
1:53 pm 13:53 Partly Cloudy 83 28.3 67 19.4 59 59 SSW 5 7 30.09 1019 8 13 0.00 0.00
2:53 pm 14:53 Mostly Sunny 86 30 68 20 55 55 NW 5 7 30.07 1018 10 16 0.00 0.00
3:53 pm 15:53 Partly Cloudy 86 30 68 20 55 55 VRB 3 6 30.06 1018 10 16 0.00 0.00
4:53 pm 16:53 Mostly Sunny 85 29.4 67 19.4 55 55 SE 5 7 30.04 1017 10 16 0.00 0.00
5:53 pm 17:53 Mostly Sunny 86 30 65 18.3 49 49 Calm 30.02 1017 10 16 0.00 0.00
6:53 pm 18:53 Partly Cloudy 84 28.9 64 17.8 51 51 VRB 5 7 30.04 1017 10 16 0.00 0.00
7:04 pm 19:04 Mostly Cloudy with Nearby Thunderstorms 82 27.8 65 18.3 56 56 W 8 13 30.03 1017 8 13 0.00 0.00
7:53 pm 19:53 Mostly Cloudy with Nearby Thunderstorms 75 23.9 67 19.4 76 76 NE 8 13 30.08 1019 10 16 0.00 0.03
8:02 pm 20:02 Mostly Sunny 74 23.3 67 19.4 79 79 NE 7 11 30.06 1018 10 16 0.00 0.00
8:53 pm 20:53 Clear 71 21.7 66 18.9 84 84 NE 3 6 30.08 1019 10 16 0.00 0.00
9:53 pm 21:53 Clear 69 20.6 66 18.9 90 90 VRB 5 7 30.08 1019 10 16 0.00 0.00
10:53 pm 22:53 Clear 68 20 66 18.9 93 93 VRB 3 6 30.09 1019 10 16 0.00 0.00
11:53 pm 23:53 Clear 66 18.9 66 18.9 100 100 Calm 30.09 1019 10 16 0.00 0.00

Powered by AerisWeather